QPF
0.00 0.00 0.00 0.00 0.00 0.00 0.00 0.00 0.00 0.00 0.00 0.00 0.00 0.00 0.00 0.00 0.00 0.00 0.00 0.00 0.00 0.00 0.01 0.01 0.01 0.01 0.02 0.02 0.02 0.01 0.01 0.00 0.00 0.00 0.00 0.00 0.00 0.00 0.00 0.00 0.01 0.00 0.00
0.00 0.00 0.00 0.00 0.00 0.00 0.00 0.00 0.00 0.00 0.00 0.00 0.00 0.00 0.00 0.00 0.00 0.00 0.00 0.00 0.01 0.01 0.01 0.01 0.02 0.02 0.02 0.01 0.01 0.01 0.01 0.00 0.00 0.00 0.00 0.00 0.00 0.00 0.00 0.00 0.02 0.01 0.00
0.00 0.00 0.00 0.00 0.00 0.00 0.00 0.00 0.00 0.00 0.00 0.00 0.00 0.00 0.00 0.00 0.00 0.00 0.00 0.00 0.01 0.01 0.01 0.01 0.01 0.02 0.01 0.01 0.01 0.01 0.01 0.01 0.00 0.01 0.02 0.04 0.01 0.00 0.00 0.00 0.00 0.00 0.00
0.00 0.00 0.00 0.00 0.00 0.00 0.00 0.00 0.01 0.00 0.00 0.00 0.00 0.00 0.00 0.00 0.00 0.00 0.00 0.00 0.00 0.00 0.00 0.00 0.01 0.01 0.01 0.00 0.00 0.00 0.00 0.01 0.01 0.03 0.13 0.11 0.04 0.01 0.00 0.00 0.00 0.00 0.00
0.00 0.00 0.00 0.00 0.00 0.00 0.00 0.00 0.00 0.01 0.00 0.00 0.00 0.00 0.00 0.00 0.00 0.00 0.00 0.00 0.00 0.00 0.00 0.01 0.01 0.00 0.00 0.00 0.01 0.01 0.01 0.01 0.03 0.08 0.14 0.10 0.09 0.02 0.00 0.00 0.01 0.00 0.00
0.00 0.00 0.00 0.00 0.00 0.00 0.00 0.00 0.00 0.00 0.00 0.00 0.00 0.00 0.00 0.00 0.00 0.00 0.00 0.00 0.00 0.00 0.00 0.00 0.01 0.00 0.00 0.00 0.01 0.01 0.01 0.01 0.02 0.08 0.08 0.05 0.08 0.03 0.00 0.00 0.01 0.01 0.01
0.00 0.00 0.00 0.00 0.00 0.00 0.00 0.00 0.00 0.00 0.00 0.00 0.00 0.00 0.00 0.00 0.00 0.00 0.00 0.00 0.00 0.00 0.00 0.00 0.00 0.00 0.00 0.00 0.00 0.00 0.01 0.01 0.05 0.08 0.04 0.04 0.11 0.04 0.01 0.01 0.02 0.02 0.02
0.00 0.00 0.00 0.00 0.00 0.00 0.00 0.00 0.00 0.00 0.00 0.00 0.00 0.00 0.00 0.00 0.00 0.00 0.00 0.00 0.00 0.00 0.00 0.00 0.00 0.00 0.00 0.00 0.00 0.00 0.00 0.01 0.04 0.04 0.03 0.05 0.06 0.02 0.01 0.02 0.03 0.03 0.02
0.01 0.01 0.00 0.00 0.00 0.00 0.00 0.00 0.00 0.00 0.00 0.00 0.00 0.00 0.00 0.00 0.00 0.00 0.00 0.00 0.00 0.00 0.00 0.00 0.00 0.00 0.00 0.00 0.00 0.00 0.00 0.01 0.03 0.02 0.02 0.07 0.04 0.02 0.02 0.02 0.02 0.02 0.02
0.05 0.03 0.01 0.01 0.01 0.00 0.00 0.00 0.00 0.00 0.00 0.00 0.00 0.00 0.00 0.00 0.00 0.00 0.00 0.00 0.00 0.00 0.00 0.00 0.00 0.00 0.00 0.00 0.00 0.00 0.00 0.00 0.01 0.02 0.03 0.07 0.04 0.03 0.03 0.03 0.03 0.02 0.02
0.06 0.08 0.02 0.01 0.01 0.00 0.00 0.00 0.00 0.00 0.00 0.00 0.00 0.00 0.00 0.00 0.00 0.00 0.00 0.00 0.00 0.00 0.00 0.00 0.00 0.00 0.00 0.00 0.00 0.00 0.00 0.00 0.01 0.02 0.02 0.04 0.02 0.02 0.03 0.04 0.04 0.03 0.03
0.04 0.07 0.03 0.01 0.00 0.00 0.00 0.00 0.00 0.00 0.00 0.00 0.00 0.00 0.00 0.02 0.03 0.02 0.02 0.01 0.00 0.00 0.00 0.00 0.00 0.00 0.00 0.01 0.00 0.00 0.00 0.00 0.01 0.02 0.04 0.03 0.02 0.02 0.05 0.05 0.04 0.04 0.04
0.04 0.06 0.06 0.03 0.02 0.02 0.01 0.01 0.01 0.01 0.01 0.01 0.01 0.01 0.02 0.05 0.05 0.05 0.05 0.02 0.01 0.00 0.00 0.00 0.00 0.00 0.00 0.01 0.01 0.00 0.00 0.00 0.01 0.01 0.02 0.03 0.02 0.03 0.05 0.06 0.06 0.06 0.07
0.07 0.08 0.14 0.12 0.07 0.05 0.04 0.04 0.03 0.02 0.02 0.02 0.05 0.03 0.05 0.08 0.07 0.06 0.06 0.03 0.02 0.01 0.01 0.02 0.01 0.00 0.00 0.00 0.00 0.00 0.00 0.00 0.01 0.02 0.03 0.02 0.01 0.01 0.03 0.06 0.08 0.08 0.08
0.08 0.09 0.14 0.16 0.12 0.09 0.08 0.09 0.08 0.06 0.05 0.05 0.08 0.07 0.07 0.07 0.07 0.10 0.09 0.07 0.04 0.04 0.04 0.04 0.02 0.02 0.01 0.00 0.00 0.00 0.00 0.00 0.01 0.01 0.03 0.03 0.01 0.01 0.03 0.06 0.07 0.08 0.11
0.12 0.13 0.13 0.19 0.22 0.19 0.15 0.15 0.16 0.13 0.14 0.14 0.13 0.11 0.08 0.08 0.11 0.13 0.13 0.11 0.08 0.08 0.06 0.05 0.03 0.03 0.03 0.03 0.02 0.01 0.01 0.01 0.02 0.03 0.05 0.04 0.02 0.01 0.02 0.04 0.08 0.10 0.12
0.12 0.17 0.20 0.26 0.30 0.32 0.29 0.25 0.20 0.21 0.21 0.24 0.26 0.24 0.17 0.14 0.16 0.14 0.14 0.12 0.09 0.10 0.12 0.13 0.11 0.07 0.06 0.04 0.03 0.03 0.03 0.02 0.02 0.03 0.04 0.05 0.04 0.04 0.03 0.05 0.06 0.09 0.10
0.10 0.16 0.20 0.25 0.28 0.32 0.33 0.32 0.22 0.24 0.23 0.28 0.28 0.28 0.20 0.15 0.18 0.20 0.19 0.14 0.11 0.10 0.13 0.15 0.14 0.10 0.09 0.06 0.05 0.04 0.05 0.05 0.04 0.04 0.04 0.05 0.07 0.09 0.10 0.06 0.05 0.07 0.10
0.09 0.17 0.21 0.23 0.28 0.30 0.33 0.34 0.29 0.34 0.35 0.32 0.31 0.31 0.31 0.27 0.23 0.22 0.21 0.18 0.14 0.12 0.13 0.10 0.14 0.11 0.12 0.10 0.06 0.05 0.05 0.05 0.06 0.05 0.05 0.05 0.08 0.11 0.13 0.11 0.07 0.06 0.08
0.09 0.17 0.24 0.26 0.27 0.34 0.39 0.47 0.40 0.49 0.55 0.50 0.48 0.41 0.38 0.35 0.32 0.27 0.19 0.16 0.15 0.16 0.15 0.13 0.14 0.13 0.14 0.13 0.09 0.09 0.07 0.05 0.06 0.06 0.07 0.07 0.09 0.09 0.09 0.11 0.13 0.11 0.07
0.11 0.13 0.19 0.23 0.26 0.29 0.38 0.45 0.45 0.42 0.56 0.61 0.55 0.48 0.39 0.34 0.37 0.36 0.24 0.20 0.20 0.19 0.16 0.15 0.14 0.13 0.14 0.15 0.14 0.13 0.09 0.07 0.09 0.08 0.08 0.08 0.08 0.08 0.07 0.07 0.06 0.06 0.07
0.11 0.11 0.14 0.18 0.22 0.24 0.28 0.34 0.48 0.42 0.43 0.44 0.44 0.43 0.35 0.31 0.33 0.35 0.28 0.22 0.21 0.19 0.17 0.16 0.15 0.15 0.14 0.16 0.17 0.17 0.15 0.14 0.12 0.08 0.08 0.08 0.07 0.07 0.05 0.04 0.03 0.04 0.05
0.11 0.13 0.12 0.16 0.20 0.23 0.28 0.31 0.41 0.40 0.34 0.33 0.29 0.28 0.27 0.27 0.31 0.33 0.29 0.25 0.23 0.19 0.16 0.16 0.14 0.15 0.16 0.16 0.15 0.16 0.17 0.17 0.15 0.11 0.09 0.07 0.07 0.05 0.04 0.03 0.03 0.05 0.05
0.09 0.12 0.11 0.13 0.19 0.22 0.23 0.31 0.38 0.40 0.40 0.36 0.31 0.22 0.21 0.20 0.22 0.26 0.26 0.24 0.23 0.20 0.16 0.15 0.14 0.15 0.15 0.13 0.12 0.12 0.13 0.16 0.15 0.12 0.09 0.07 0.06 0.05 0.04 0.03 0.04 0.04 0.04
0.06 0.07 0.09 0.11 0.14 0.18 0.20 0.23 0.35 0.37 0.35 0.33 0.26 0.19 0.15 0.16 0.18 0.19 0.19 0.19 0.18 0.17 0.15 0.14 0.14 0.12 0.11 0.10 0.10 0.10 0.10 0.13 0.14 0.12 0.10 0.08 0.06 0.05 0.05 0.04 0.04 0.03 0.03
0.07 0.04 0.05 0.07 0.08 0.12 0.15 0.20 0.23 0.27 0.31 0.23 0.17 0.14 0.12 0.12 0.15 0.18 0.18 0.18 0.19 0.16 0.14 0.12 0.10 0.08 0.08 0.08 0.08 0.08 0.08 0.09 0.08 0.07 0.05 0.04 0.03 0.03 0.03 0.02 0.02 0.02 0.02
MSLP
1007.56 1007.56 1007.81 1008.31 1008.97 1009.68 1010.36 1010.93 1011.36 1011.67 1011.89 1012.09 1012.33 1012.62 1012.98 1013.37 1013.75 1014.10 1014.38 1014.59 1014.74 1014.88 1015.03 1015.20 1015.42 1015.65 1015.88 1016.08 1016.22 1016.30 1016.33 1016.33 1016.35 1016.41 1016.54 1016.74 1016.99 1017.28 1017.57 1017.83 1018.06 1018.24 1018.38
1007.48 1007.56 1007.88 1008.40 1009.06 1009.74 1010.37 1010.89 1011.28 1011.56 1011.80 1012.06 1012.37 1012.75 1013.20 1013.66 1014.09 1014.45 1014.71 1014.88 1014.99 1015.08 1015.18 1015.33 1015.53 1015.77 1016.00 1016.20 1016.34 1016.43 1016.46 1016.48 1016.52 1016.61 1016.77 1017.00 1017.29 1017.59 1017.89 1018.16 1018.38 1018.55 1018.69
1007.20 1007.39 1007.80 1008.38 1009.06 1009.73 1010.33 1010.82 1011.18 1011.46 1011.72 1012.02 1012.39 1012.83 1013.33 1013.82 1014.27 1014.61 1014.84 1014.97 1015.05 1015.11 1015.21 1015.36 1015.57 1015.82 1016.08 1016.29 1016.45 1016.54 1016.58 1016.61 1016.66 1016.77 1016.95 1017.20 1017.50 1017.82 1018.13 1018.40 1018.62 1018.80 1018.94
1006.79 1007.12 1007.64 1008.30 1009.03 1009.72 1010.31 1010.78 1011.13 1011.41 1011.69 1012.01 1012.42 1012.89 1013.41 1013.90 1014.33 1014.64 1014.84 1014.94 1014.99 1015.06 1015.17 1015.35 1015.60 1015.89 1016.17 1016.41 1016.57 1016.67 1016.71 1016.73 1016.78 1016.89 1017.08 1017.34 1017.65 1017.97 1018.28 1018.56 1018.79 1018.97 1019.13
1006.37 1006.84 1007.48 1008.25 1009.03 1009.76 1010.36 1010.82 1011.17 1011.45 1011.74 1012.07 1012.49 1012.97 1013.48 1013.95 1014.34 1014.62 1014.78 1014.87 1014.92 1015.01 1015.16 1015.39 1015.69 1016.02 1016.33 1016.59 1016.75 1016.83 1016.85 1016.86 1016.89 1016.99 1017.17 1017.42 1017.73 1018.05 1018.36 1018.64 1018.88 1019.08 1019.26
1006.05 1006.65 1007.43 1008.29 1009.14 1009.90 1010.51 1010.97 1011.31 1011.59 1011.88 1012.21 1012.63 1013.09 1013.58 1014.02 1014.37 1014.61 1014.75 1014.83 1014.91 1015.03 1015.23 1015.52 1015.87 1016.24 1016.57 1016.82 1016.97 1017.03 1017.02 1016.99 1017.00 1017.07 1017.23 1017.47 1017.77 1018.08 1018.39 1018.67 1018.92 1019.14 1019.34
1005.92 1006.65 1007.52 1008.46 1009.35 1010.13 1010.75 1011.20 1011.53 1011.80 1012.08 1012.41 1012.81 1013.26 1013.71 1014.12 1014.44 1014.66 1014.79 1014.88 1014.98 1015.14 1015.39 1015.73 1016.12 1016.51 1016.85 1017.08 1017.20 1017.22 1017.17 1017.10 1017.07 1017.13 1017.27 1017.49 1017.78 1018.09 1018.40 1018.68 1018.93 1019.16 1019.38
1005.99 1006.80 1007.74 1008.72 1009.63 1010.40 1011.00 1011.44 1011.75 1012.01 1012.28 1012.61 1013.00 1013.43 1013.86 1014.24 1014.54 1014.75 1014.88 1014.98 1015.11 1015.31 1015.60 1015.97 1016.37 1016.77 1017.08 1017.29 1017.36 1017.33 1017.24 1017.14 1017.09 1017.12 1017.26 1017.48 1017.77 1018.08 1018.39 1018.67 1018.93 1019.16 1019.38
1006.20 1007.04 1008.00 1008.97 1009.86 1010.60 1011.17 1011.57 1011.87 1012.12 1012.39 1012.71 1013.10 1013.53 1013.95 1014.32 1014.61 1014.81 1014.95 1015.08 1015.23 1015.45 1015.76 1016.14 1016.54 1016.91 1017.19 1017.35 1017.38 1017.31 1017.18 1017.06 1017.00 1017.04 1017.18 1017.42 1017.72 1018.05 1018.37 1018.66 1018.91 1019.13 1019.35
1006.38 1007.22 1008.15 1009.09 1009.93 1010.62 1011.14 1011.52 1011.80 1012.05 1012.33 1012.66 1013.06 1013.50 1013.92 1014.29 1014.58 1014.79 1014.94 1015.07 1015.24 1015.48 1015.79 1016.15 1016.53 1016.87 1017.10 1017.22 1017.21 1017.11 1016.97 1016.84 1016.79 1016.85 1017.02 1017.29 1017.63 1017.98 1018.32 1018.62 1018.87 1019.09 1019.28
1006.39 1007.19 1008.07 1008.94 1009.73 1010.36 1010.85 1011.21 1011.49 1011.76 1012.06 1012.43 1012.85 1013.29 1013.72 1014.09 1014.39 1014.60 1014.76 1014.91 1015.09 1015.33 1015.64 1015.98 1016.32 1016.62 1016.81 1016.89 1016.85 1016.74 1016.60 1016.49 1016.46 1016.56 1016.77 1017.09 1017.47 1017.86 1018.23 1018.54 1018.80 1019.00 1019.17
1006.13 1006.87 1007.69 1008.50 1009.23 1009.83 1010.31 1010.68 1010.99 1011.29 1011.63 1012.02 1012.46 1012.92 1013.35 1013.72 1014.02 1014.24 1014.41 1014.58 1014.77 1015.01 1015.30 1015.62 1015.93 1016.19 1016.36 1016.41 1016.36 1016.25 1016.12 1016.04 1016.05 1016.19 1016.45 1016.81 1017.23 1017.66 1018.06 1018.40 1018.66 1018.87 1019.02
1005.57 1006.26 1007.02 1007.78 1008.49 1009.10 1009.60 1010.01 1010.38 1010.74 1011.12 1011.54 1011.99 1012.44 1012.86 1013.22 1013.51 1013.73 1013.92 1014.09 1014.29 1014.54 1014.83 1015.14 1015.44 1015.67 1015.82 1015.86 1015.82 1015.72 1015.62 1015.58 1015.63 1015.81 1016.11 1016.50 1016.95 1017.41 1017.83 1018.19 1018.47 1018.68 1018.83
1004.82 1005.46 1006.19 1006.94 1007.66 1008.31 1008.87 1009.37 1009.82 1010.24 1010.67 1011.11 1011.55 1011.97 1012.35 1012.68 1012.94 1013.16 1013.34 1013.53 1013.76 1014.02 1014.32 1014.63 1014.92 1015.15 1015.29 1015.35 1015.32 1015.25 1015.19 1015.18 1015.27 1015.47 1015.79 1016.20 1016.66 1017.13 1017.56 1017.94 1018.23 1018.45 1018.61
1004.07 1004.68 1005.39 1006.16 1006.92 1007.65 1008.32 1008.92 1009.46 1009.96 1010.42 1010.86 1011.26 1011.62 1011.94 1012.20 1012.41 1012.60 1012.78 1012.99 1013.23 1013.51 1013.83 1014.16 1014.46 1014.71 1014.87 1014.95 1014.96 1014.93 1014.90 1014.93 1015.04 1015.25 1015.57 1015.97 1016.42 1016.88 1017.32 1017.69 1018.00 1018.24 1018.41
1003.56 1004.14 1004.85 1005.65 1006.48 1007.31 1008.09 1008.81 1009.45 1010.00 1010.48 1010.89 1011.22 1011.49 1011.70 1011.86 1012.01 1012.15 1012.31 1012.52 1012.78 1013.10 1013.44 1013.80 1014.12 1014.39 1014.59 1014.71 1014.76 1014.78 1014.81 1014.87 1015.01 1015.23 1015.54 1015.92 1016.33 1016.76 1017.17 1017.53 1017.84 1018.09 1018.28
1003.50 1004.05 1004.75 1005.57 1006.46 1007.37 1008.26 1009.08 1009.79 1010.39 1010.86 1011.21 1011.44 1011.59 1011.67 1011.72 1011.76 1011.84 1011.97 1012.18 1012.45 1012.79 1013.16 1013.54 1013.90 1014.20 1014.44 1014.61 1014.73 1014.82 1014.91 1015.03 1015.20 1015.44 1015.73 1016.08 1016.46 1016.84 1017.21 1017.54 1017.83 1018.08 1018.29
1004.01 1004.49 1005.15 1005.96 1006.88 1007.84 1008.79 1009.67 1010.44 1011.05 1011.49 1011.76 1011.88 1011.89 1011.83 1011.75 1011.69 1011.69 1011.77 1011.96 1012.23 1012.57 1012.96 1013.37 1013.75 1014.10 1014.38 1014.62 1014.82 1014.99 1015.17 1015.37 1015.60 1015.87 1016.17 1016.50 1016.83 1017.17 1017.48 1017.77 1018.04 1018.27 1018.48
1005.07 1005.45 1006.02 1006.76 1007.64 1008.59 1009.55 1010.45 1011.22 1011.81 1012.21 1012.40 1012.42 1012.30 1012.12 1011.91 1011.75 1011.67 1011.70 1011.85 1012.10 1012.44 1012.83 1013.25 1013.65 1014.03 1014.38 1014.69 1014.97 1015.25 1015.54 1015.84 1016.15 1016.49 1016.82 1017.15 1017.46 1017.75 1018.02 1018.26 1018.48 1018.69 1018.88
1006.56 1006.80 1007.21 1007.82 1008.58 1009.45 1010.35 1011.21 1011.95 1012.51 1012.86 1013.00 1012.93 1012.73 1012.45 1012.15 1011.90 1011.75 1011.73 1011.84 1012.06 1012.38 1012.76 1013.17 1013.59 1013.99 1014.39 1014.77 1015.16 1015.55 1015.96 1016.38 1016.81 1017.23 1017.62 1017.98 1018.29 1018.56 1018.79 1018.98 1019.15 1019.31 1019.47
1008.28 1008.33 1008.54 1008.94 1009.51 1010.22 1011.00 1011.78 1012.46 1012.99 1013.31 1013.41 1013.33 1013.09 1012.76 1012.42 1012.13 1011.93 1011.87 1011.94 1012.13 1012.41 1012.76 1013.16 1013.57 1013.99 1014.42 1014.87 1015.35 1015.85 1016.39 1016.93 1017.49 1018.01 1018.49 1018.90 1019.23 1019.49 1019.69 1019.85 1019.97 1020.09 1020.21
1010.00 1009.84 1009.81 1009.96 1010.29 1010.79 1011.40 1012.05 1012.66 1013.16 1013.48 1013.61 1013.55 1013.34 1013.04 1012.72 1012.43 1012.23 1012.14 1012.18 1012.33 1012.57 1012.89 1013.25 1013.65 1014.07 1014.52 1015.01 1015.56 1016.15 1016.79 1017.45 1018.11 1018.74 1019.30 1019.78 1020.15 1020.43 1020.62 1020.75 1020.84 1020.92 1021.00
1011.53 1011.18 1010.91 1010.78 1010.85 1011.11 1011.53 1012.04 1012.58 1013.05 1013.41 1013.61 1013.64 1013.53 1013.32 1013.07 1012.84 1012.66 1012.58 1012.60 1012.72 1012.93 1013.20 1013.53 1013.89 1014.29 1014.74 1015.24 1015.82 1016.46 1017.16 1017.89 1018.63 1019.33 1019.97 1020.50 1020.92 1021.23 1021.43 1021.55 1021.63 1021.68 1021.73
1012.79 1012.28 1011.80 1011.43 1011.25 1011.27 1011.49 1011.87 1012.33 1012.81 1013.23 1013.53 1013.70 1013.73 1013.66 1013.53 1013.39 1013.27 1013.22 1013.24 1013.34 1013.52 1013.75 1014.03 1014.35 1014.71 1015.13 1015.61 1016.16 1016.79 1017.49 1018.24 1019.01 1019.74 1020.41 1020.99 1021.45 1021.78 1022.01 1022.14 1022.22 1022.27 1022.31
1013.80 1013.20 1012.56 1012.01 1011.61 1011.44 1011.49 1011.74 1012.15 1012.63 1013.12 1013.54 1013.85 1014.05 1014.14 1014.15 1014.11 1014.07 1014.06 1014.09 1014.18 1014.33 1014.52 1014.76 1015.03 1015.34 1015.70 1016.12 1016.61 1017.18 1017.82 1018.52 1019.24 1019.95 1020.62 1021.20 1021.68 1022.05 1022.30 1022.46 1022.56 1022.62 1022.67
1014.65 1014.04 1013.34 1012.67 1012.13 1011.81 1011.72 1011.87 1012.22 1012.70 1013.25 1013.77 1014.22 1014.57 1014.80 1014.94 1015.00 1015.03 1015.06 1015.11 1015.19 1015.32 1015.48 1015.67 1015.89 1016.14 1016.43 1016.76 1017.16 1017.62 1018.15 1018.74 1019.37 1020.01 1020.62 1021.18 1021.66 1022.04 1022.32 1022.51 1022.64 1022.73 1022.80
Thickness
5822 5817 5811 5808 5804 5801 5797 5793 5790 5787 5784 5782 5780 5778 5777 5775 5773 5772 5770 5768 5766 5764 5762 5761 5759 5758 5757 5757 5756 5755 5753 5752 5752 5751 5750 5747 5745 5743 5742 5740 5739 5737 5735
5825 5815 5809 5807 5803 5799 5795 5792 5788 5785 5782 5780 5778 5776 5774 5772 5770 5768 5766 5765 5763 5761 5759 5758 5757 5756 5755 5754 5753 5752 5751 5750 5749 5748 5746 5744 5742 5740 5739 5738 5738 5735 5732
5823 5813 5807 5804 5801 5797 5794 5790 5787 5784 5781 5778 5775 5773 5771 5769 5767 5765 5763 5762 5760 5758 5757 5755 5754 5753 5752 5751 5750 5749 5748 5747 5747 5746 5744 5743 5739 5737 5736 5735 5734 5732 5730
5820 5811 5807 5802 5799 5796 5792 5789 5785 5782 5779 5776 5773 5770 5768 5767 5765 5762 5761 5759 5757 5756 5754 5753 5751 5750 5749 5749 5748 5747 5746 5746 5745 5744 5743 5742 5740 5735 5733 5732 5731 5729 5727
5817 5810 5804 5799 5796 5793 5790 5787 5783 5780 5777 5774 5771 5769 5766 5764 5762 5760 5758 5757 5755 5753 5752 5751 5749 5748 5747 5746 5745 5745 5744 5744 5743 5743 5743 5742 5739 5734 5732 5730 5728 5727 5725
5814 5808 5799 5795 5792 5789 5787 5784 5781 5778 5775 5772 5769 5766 5764 5762 5760 5758 5756 5754 5752 5751 5750 5749 5747 5746 5745 5745 5744 5743 5743 5743 5742 5743 5744 5742 5738 5734 5731 5729 5727 5725 5723
5813 5806 5796 5791 5788 5785 5783 5780 5778 5775 5772 5769 5766 5764 5761 5759 5757 5755 5754 5752 5750 5749 5748 5747 5746 5744 5744 5743 5742 5741 5741 5742 5742 5744 5745 5743 5738 5734 5731 5728 5726 5724 5722
5811 5803 5792 5787 5784 5781 5779 5777 5774 5772 5769 5766 5763 5761 5759 5757 5755 5753 5751 5749 5748 5747 5746 5745 5744 5743 5742 5741 5741 5740 5740 5740 5743 5746 5745 5742 5738 5734 5730 5728 5725 5723 5721
5808 5799 5788 5783 5779 5777 5775 5773 5771 5768 5766 5763 5760 5757 5755 5754 5752 5750 5749 5747 5746 5744 5743 5742 5742 5741 5740 5740 5739 5739 5739 5740 5741 5745 5744 5741 5737 5733 5730 5727 5724 5722 5720
5803 5795 5786 5782 5777 5774 5770 5768 5766 5764 5762 5759 5757 5754 5752 5750 5749 5747 5746 5744 5743 5742 5741 5740 5740 5739 5739 5738 5738 5738 5739 5739 5741 5744 5743 5739 5736 5733 5730 5727 5724 5722 5720
5794 5790 5785 5781 5776 5773 5768 5764 5761 5759 5757 5755 5753 5751 5749 5748 5747 5745 5745 5742 5741 5740 5739 5739 5738 5737 5737 5737 5737 5737 5738 5739 5743 5744 5742 5739 5736 5733 5730 5727 5724 5722 5720
5787 5785 5783 5780 5776 5772 5769 5762 5759 5756 5754 5753 5751 5749 5748 5748 5747 5745 5743 5741 5739 5738 5737 5737 5737 5736 5736 5737 5737 5737 5738 5740 5743 5744 5742 5738 5736 5733 5730 5727 5724 5722 5720
5787 5784 5781 5778 5775 5772 5769 5762 5759 5757 5753 5751 5751 5748 5747 5747 5746 5744 5741 5738 5737 5736 5736 5736 5736 5736 5737 5739 5740 5739 5740 5743 5745 5745 5742 5738 5736 5734 5731 5727 5724 5722 5719
5785 5782 5780 5777 5774 5771 5769 5763 5758 5757 5754 5751 5750 5746 5745 5746 5746 5744 5741 5738 5738 5737 5737 5737 5738 5739 5740 5742 5742 5742 5743 5744 5744 5744 5740 5737 5736 5733 5730 5727 5724 5721 5719
5781 5780 5779 5774 5770 5767 5764 5761 5758 5755 5754 5751 5749 5746 5745 5744 5744 5744 5742 5740 5739 5739 5738 5739 5740 5741 5741 5741 5742 5742 5742 5742 5742 5740 5737 5735 5733 5731 5728 5726 5723 5721 5719
5773 5771 5771 5768 5764 5762 5759 5756 5755 5753 5751 5749 5747 5744 5743 5743 5743 5743 5741 5740 5740 5740 5740 5739 5740 5741 5740 5740 5739 5739 5739 5739 5738 5736 5734 5732 5730 5728 5726 5723 5721 5719 5718
5766 5764 5762 5759 5756 5755 5752 5751 5750 5748 5748 5746 5745 5742 5739 5740 5740 5740 5739 5738 5738 5739 5738 5737 5736 5736 5736 5736 5735 5735 5734 5733 5733 5732 5731 5729 5727 5725 5722 5720 5718 5716 5715
5759 5757 5756 5754 5751 5750 5747 5745 5743 5743 5742 5740 5740 5738 5735 5736 5735 5734 5735 5734 5734 5734 5734 5732 5732 5731 5731 5731 5730 5730 5729 5729 5728 5727 5725 5725 5723 5721 5717 5715 5713 5712 5710
5751 5751 5749 5748 5746 5745 5741 5738 5736 5737 5737 5736 5735 5732 5731 5731 5730 5730 5730 5730 5730 5731 5730 5729 5727 5727 5725 5725 5725 5724 5724 5723 5722 5721 5719 5717 5716 5714 5711 5708 5706 5705 5704
5740 5740 5739 5738 5738 5737 5732 5729 5727 5728 5727 5727 5726 5724 5724 5724 5723 5724 5725 5726 5727 5725 5724 5724 5723 5722 5721 5720 5719 5719 5717 5717 5715 5713 5711 5709 5707 5705 5703 5701 5699 5697 5695
5724 5726 5728 5729 5730 5729 5726 5720 5718 5717 5718 5718 5715 5715 5718 5719 5718 5717 5719 5721 5721 5720 5719 5719 5718 5716 5714 5714 5711 5708 5708 5708 5706 5704 5702 5700 5697 5695 5693 5691 5689 5687 5686
5708 5712 5716 5718 5721 5721 5718 5716 5713 5713 5713 5711 5709 5709 5711 5712 5713 5712 5713 5716 5717 5716 5714 5714 5713 5710 5709 5709 5705 5699 5695 5694 5694 5693 5692 5689 5686 5684 5682 5679 5677 5675 5674
5696 5699 5704 5708 5710 5711 5711 5708 5707 5707 5704 5703 5702 5701 5701 5703 5705 5707 5708 5710 5710 5710 5708 5708 5707 5704 5701 5701 5701 5696 5689 5685 5683 5679 5678 5676 5674 5672 5670 5668 5666 5663 5662
5684 5689 5693 5697 5700 5702 5704 5702 5701 5698 5695 5695 5695 5693 5694 5696 5697 5698 5700 5701 5702 5702 5701 5701 5700 5700 5697 5693 5692 5691 5689 5686 5678 5669 5665 5664 5662 5660 5658 5656 5654 5652 5650
5673 5679 5683 5686 5688 5691 5695 5697 5695 5692 5689 5687 5687 5686 5686 5687 5688 5690 5690 5691 5692 5691 5692 5692 5691 5690 5689 5686 5683 5682 5680 5679 5676 5668 5658 5653 5651 5648 5646 5644 5642 5640 5638
5662 5667 5672 5675 5677 5680 5683 5685 5684 5682 5679 5677 5677 5677 5676 5676 5678 5679 5679 5680 5680 5680 5680 5680 5679 5678 5676 5675 5672 5671 5669 5666 5663 5660 5653 5646 5641 5637 5636 5633 5631 5628 5626